Skip Page Navigation
NASA JPL Caltech
NASA Logo - Jet Propulsion Laboratory + View the NASA Portal
+ Near-Earth Object (NEO) Program
Search JPL
JPL Home Earth Solar System Stars & Galaxies Technology
JPL Solar System Dynamics
BODIES ORBITS EPHEMERIDES TOOLS PHYSICAL DATA DISCOVERY FAQ SITE MAP
JPL Small-Body Database Browser
Search: [ help ]  
20219 Brianstone (1997 GP36)
Classification: Main-belt Asteroid          SPK-ID: 2020219
Ephemeris | Orbit Diagram | Orbital Elements | Physical Parameters | Discovery Circumstances | Close-Approach Data ]

[ show orbit diagram ]
Orbital Elements at Epoch 2456800.5 (2014-May-23.0) TDB
Reference: JPL 9 (heliocentric ecliptic J2000)
 Element Value Uncertainty (1-sigma)   Units 
e .2081179843732095 7.5722e-08  
a 2.649688366869532 2.2014e-08 AU
q 2.098240564739504 2.0539e-07 AU
i 12.24473728614289 8.6564e-06 deg
node 215.8258217724185 2.7818e-05 deg
peri 323.6315426738002 3.2492e-05 deg
M 13.39197439034653 1.481e-05 deg
tp 2456741.895261180588
(2014-Mar-25.39526118)
6.4864e-05 JED
period 1575.39921747434
4.31
1.9633e-05
5.375e-08
d
yr
n .2285135069301021 2.8477e-09 deg/d
Q 3.201136168999561 2.6595e-08 AU
  Orbit Determination Parameters
   # obs. used (total)      767  
   data-arc span      6290 days (17.22 yr)  
   first obs. used      1997-04-06  
   last obs. used      2014-06-26  
   planetary ephem.      DE431  
   SB-pert. ephem.      SB431-BIG16  
   condition code      0  
   fit RMS      .49353  
   data source      ORB  
   producer      Otto Matic  
   solution date      2014-Jul-14 12:44:23  

Additional Information
 Earth MOID = 1.11322 AU 
 T_jup = 3.328 
[ show covariance matrix ]

Ephemeris | Orbit Diagram | Orbital Elements | Physical Parameters | Discovery Circumstances | Close-Approach Data ]

Physical Parameter Table
Parameter Symbol Value Units Sigma Reference Notes
absolute magnitude H 13.3 mag n/a MPO257012  

20219 Brianstone           Discovered 1997 Apr. 6 by the Lincoln Laboratory Near-Earth Asteroid Research Team at Socorro.
Brian Stone mentored a finalist in the 2012 Intel Science Talent Search, a science competition for high-school seniors. He teaches at the Northview High School, Duluth, Georgia.
NOTE: some special characters may not display properly (any characters within {} are an attempt to place the proper accent above a character)
Reference: 20120506/MPCPages.arcLast Updated: 2012-05-09

[ show close-approach data ]
Alternate Designations
 1997 GP36 = 1998 QR81 
Ephemeris | Orbit Diagram | Orbital Elements | Physical Parameters | Discovery Circumstances | Close-Approach Data ]
ABOUT SSD CREDITS/AWARDS PRIVACY/COPYRIGHT GLOSSARY LINKS
FirstGov 2014-Jul-31 05:22 UT
(server date/time)  
NASA Home Page
Site Manager:   Donald K. Yeomans
Webmaster  Alan B. Chamberlin